TimeCST,TemperatureF,Dew PointF,Humidity,Sea Level PressureIn,VisibilityMPH,Wind Direction,Wind SpeedMPH,Gust SpeedMPH,PrecipitationIn,Events,Conditions,WindDirDegrees,DateUTC
12:35 AM,32.2,22.8,68,30.15,10.0,Calm,Calm,-,N/A,,Clear,0,2013-01-17 06:35:00
12:55 AM,31.6,22.8,70,30.16,10.0,West,3.5,-,N/A,,Clear,280,2013-01-17 06:55:00
1:15 AM,32.4,23.4,69,30.16,10.0,WNW,4.6,-,N/A,,Clear,300,2013-01-17 07:15:00
1:35 AM,32.2,23.9,72,30.17,10.0,WNW,4.6,-,N/A,,Clear,300,2013-01-17 07:35:00
1:55 AM,32.2,24.6,74,30.18,10.0,NNW,6.9,-,N/A,,Clear,330,2013-01-17 07:55:00
2:15 AM,32.5,25.9,76,30.18,10.0,NNW,6.9,-,N/A,,Clear,330,2013-01-17 08:15:00
2:35 AM,32.2,26.4,79,30.19,10.0,NNW,6.9,-,N/A,,Clear,330,2013-01-17 08:35:00
2:55 AM,32.4,27.1,81,30.21,10.0,NW,6.9,-,N/A,,Clear,320,2013-01-17 08:55:00
3:35 AM,32.4,28.0,84,30.23,10.0,NNW,5.8,-,N/A,,Clear,340,2013-01-17 09:35:00
3:55 AM,32.7,28.6,85,30.23,10.0,NNW,5.8,-,N/A,,Clear,340,2013-01-17 09:55:00
4:15 AM,32.4,28.8,87,30.24,10.0,NNW,6.9,-,N/A,,Clear,330,2013-01-17 10:15:00
4:35 AM,32.2,28.9,88,30.25,10.0,NNW,6.9,-,N/A,,Scattered Clouds,330,2013-01-17 10:35:00
4:55 AM,32.0,29.3,90,30.26,10.0,NNW,8.1,-,N/A,,Clear,340,2013-01-17 10:55:00
5:15 AM,32.0,29.7,91,30.27,10.0,NNW,5.8,-,N/A,,Clear,330,2013-01-17 11:15:00
5:35 AM,31.8,29.8,92,30.28,10.0,NW,4.6,-,N/A,,Clear,320,2013-01-17 11:35:00
5:55 AM,31.1,29.5,94,30.28,10.0,NNW,4.6,-,N/A,,Scattered Clouds,330,2013-01-17 11:55:00
6:15 AM,31.3,29.8,94,30.30,10.0,NNW,5.8,-,N/A,,Mostly Cloudy,330,2013-01-17 12:15:00
6:35 AM,31.6,30.2,94,30.30,10.0,NW,5.8,-,N/A,,Overcast,320,2013-01-17 12:35:00
6:55 AM,31.8,30.2,94,30.32,10.0,NW,5.8,-,N/A,,Overcast,320,2013-01-17 12:55:00
7:15 AM,31.8,30.0,93,30.33,10.0,NNW,6.9,-,N/A,,Overcast,330,2013-01-17 13:15:00
7:35 AM,31.6,29.5,92,30.34,10.0,NNW,10.4,-,N/A,,Overcast,340,2013-01-17 13:35:00
7:55 AM,31.5,29.1,91,30.36,10.0,NNW,11.5,-,N/A,,Overcast,340,2013-01-17 13:55:00
8:15 AM,31.1,28.2,89,30.37,10.0,NNW,12.7,-,N/A,,Overcast,340,2013-01-17 14:15:00
8:35 AM,30.9,27.5,87,30.38,10.0,NNW,10.4,-,N/A,,Overcast,340,2013-01-17 14:35:00
8:55 AM,30.7,27.5,88,30.39,10.0,North,11.5,17.3,N/A,,Overcast,350,2013-01-17 14:55:00
9:15 AM,31.1,27.3,86,30.41,10.0,NNW,11.5,-,N/A,,Overcast,340,2013-01-17 15:15:00
9:35 AM,31.3,26.1,81,30.42,10.0,North,11.5,-,N/A,,Mostly Cloudy,350,2013-01-17 15:35:00
9:55 AM,32.4,26.2,78,30.43,10.0,North,11.5,-,N/A,,Scattered Clouds,350,2013-01-17 15:55:00
10:15 AM,33.8,25.9,73,30.43,10.0,North,9.2,-,N/A,,Clear,350,2013-01-17 16:15:00
10:35 AM,34.2,23.7,66,30.44,10.0,North,11.5,-,N/A,,Clear,360,2013-01-17 16:35:00
10:55 AM,34.7,22.6,61,30.44,10.0,North,11.5,16.1,N/A,,Clear,350,2013-01-17 16:55:00
11:15 AM,35.4,22.1,58,30.43,10.0,North,8.1,-,N/A,,Clear,10,2013-01-17 17:15:00
11:35 AM,36.3,21.9,56,30.43,10.0,North,9.2,-,N/A,,Clear,350,2013-01-17 17:35:00
11:55 AM,37.2,21.7,54,30.42,10.0,North,5.8,-,N/A,,Clear,350,2013-01-17 17:55:00
12:15 PM,37.2,22.1,54,30.42,10.0,NW,6.9,-,N/A,,Clear,320,2013-01-17 18:15:00
12:35 PM,37.6,22.1,54,30.42,10.0,NW,8.1,-,N/A,,Clear,310,2013-01-17 18:35:00
12:55 PM,38.1,20.7,49,30.41,10.0,NW,10.4,-,N/A,,Clear,320,2013-01-17 18:55:00
1:15 PM,38.7,20.1,47,30.41,10.0,NNW,9.2,-,N/A,,Clear,340,2013-01-17 19:15:00
1:35 PM,39.0,20.8,48,30.41,10.0,NW,11.5,-,N/A,,Clear,320,2013-01-17 19:35:00
1:55 PM,39.4,20.8,47,30.41,10.0,NNW,10.4,-,N/A,,Clear,330,2013-01-17 19:55:00
2:15 PM,39.7,22.1,49,30.41,10.0,NNW,9.2,-,N/A,,Clear,330,2013-01-17 20:15:00
2:35 PM,39.7,23.0,51,30.41,10.0,NNW,9.2,-,N/A,,Clear,330,2013-01-17 20:35:00
2:55 PM,40.1,23.5,52,30.41,10.0,NW,8.1,-,N/A,,Clear,310,2013-01-17 20:55:00
3:15 PM,40.1,23.4,51,30.41,10.0,NW,6.9,-,N/A,,Clear,310,2013-01-17 21:15:00
3:35 PM,40.3,23.4,51,30.42,10.0,NW,4.6,-,N/A,,Clear,320,2013-01-17 21:35:00
3:55 PM,39.9,23.4,52,30.42,10.0,NW,6.9,-,N/A,,Clear,310,2013-01-17 21:55:00
4:55 PM,38.7,23.5,55,30.43,10.0,WNW,3.5,-,N/A,,Clear,300,2013-01-17 22:55:00
5:35 PM,37.2,23.0,56,30.44,10.0,Calm,Calm,-,N/A,,Clear,0,2013-01-17 23:35:00
6:35 PM,34.9,23.0,62,30.44,10.0,Calm,Calm,-,N/A,,Clear,0,2013-01-18 00:35:00
7:15 PM,32.7,23.2,68,30.45,10.0,Calm,Calm,-,N/A,,Clear,0,2013-01-18 01:15:00
7:55 PM,32.0,23.4,70,30.46,10.0,Calm,Calm,-,N/A,,Clear,0,2013-01-18 01:55:00
8:15 PM,32.0,23.5,71,30.46,10.0,Calm,Calm,-,N/A,,Clear,0,2013-01-18 02:15:00
8:55 PM,29.7,23.2,77,30.47,10.0,Calm,Calm,-,N/A,,Clear,0,2013-01-18 02:55:00
9:15 PM,28.4,23.0,80,30.47,10.0,Calm,Calm,-,N/A,,Clear,0,2013-01-18 03:15:00
9:35 PM,28.2,23.2,81,30.47,10.0,Calm,Calm,-,N/A,,Clear,0,2013-01-18 03:35:00
9:55 PM,28.4,23.5,82,30.46,10.0,Calm,Calm,-,N/A,,Clear,0,2013-01-18 03:55:00
11:15 PM,26.8,23.0,86,30.44,10.0,SSE,6.9,-,N/A,,Clear,160,2013-01-18 05:15:00
11:35 PM,27.5,23.2,84,30.44,10.0,SSE,5.8,-,N/A,,Clear,160,2013-01-18 05:35:00
11:55 PM,27.1,22.6,83,30.44,10.0,SSE,5.8,-,N/A,,Clear,160,2013-01-18 05:55:00